Temp
22 19 20 22 22 23 23 22 22 23 24 21 21 22 21 21 21 21 21 21 21 21 22 22 22 21 21 20 20 20 20 20 19 18 18 18 18 18 18 18 19 19 19 19
19 20 22 22 23 23 24 23 22 22 24 21 22 21 21 22 22 21 21 21 21 21 22 22 21 21 21 21 20 20 20 20 20 20 19 19 19 18 18 18 19 19 19 19
20 22 22 23 22 22 21 22 22 22 22 22 24 22 21 21 22 22 22 22 22 22 22 22 22 22 22 21 21 21 20 20 20 20 19 19 18 18 18 18 19 19 19 19
21 22 22 21 23 21 22 23 23 22 21 21 23 20 20 20 21 22 22 22 22 22 22 23 23 22 22 22 21 21 21 20 20 20 19 20 19 19 19 19 19 19 19 19
21 22 22 21 21 22 21 22 22 23 21 21 22 20 20 20 20 21 22 22 22 23 23 23 23 23 23 22 22 21 21 20 20 20 20 20 20 20 19 19 19 20 20 20
19 20 20 21 21 21 21 21 19 17 17 18 20 20 20 18 21 22 22 23 22 22 23 23 24 24 23 23 22 22 21 21 21 20 20 20 20 20 20 20 20 20 20 20
16 18 19 20 19 18 16 15 15 18 19 18 19 19 19 23 23 23 23 23 23 23 22 23 23 23 23 23 22 22 21 21 21 21 20 20 20 20 20 20 20 20 20 20
15 17 17 18 20 19 17 16 14 19 16 18 17 19 21 23 26 26 26 26 24 23 23 23 23 24 24 24 23 22 22 21 21 21 20 20 20 20 20 20 20 20 20 20
14 16 17 19 19 19 18 16 17 16 15 15 16 19 21 23 23 25 26 26 25 24 23 23 23 24 24 24 24 23 23 22 21 21 21 20 20 20 20 20 20 20 20 20
16 14 16 17 18 18 18 17 16 12 17 17 15 18 19 22 21 22 23 23 25 25 24 23 23 23 24 24 24 24 23 23 22 22 21 21 20 20 20 20 20 21 20 20
15 13 15 16 17 15 14 15 14 12 12 14 13 15 17 21 19 20 21 21 23 25 24 23 22 23 24 24 24 24 24 23 22 22 22 21 20 21 20 20 20 20 21 21
13 9 12 15 15 13 15 16 12 12 13 12 12 14 20 18 20 20 19 20 21 24 24 23 22 22 22 23 22 24 24 24 23 23 22 21 21 20 20 20 20 21 21 21
14 10 10 11 12 14 15 16 15 11 9 12 13 15 20 19 17 16 16 18 20 22 24 24 23 22 22 23 23 23 23 24 24 23 23 22 21 21 20 20 20 20 21 21
14 8 11 10 12 13 13 14 14 13 11 12 12 15 16 17 15 16 16 16 17 18 24 24 23 23 23 23 23 23 24 23 24 24 23 23 22 21 21 21 20 20 20 21
11 11 9 10 11 12 12 13 13 13 12 12 15 16 16 14 14 14 13 15 17 16 19 23 23 22 21 21 21 22 21 22 23 22 22 23 22 22 21 21 21 20 20 20
8 10 10 11 11 11 13 13 14 14 14 14 14 13 14 14 14 14 13 14 15 16 16 18 21 21 21 21 20 20 21 21 20 21 23 23 22 22 22 21 21 21 21 20
9 8 8 9 11 11 11 12 13 14 15 14 13 14 14 14 13 13 13 13 13 14 15 16 18 20 21 21 21 20 20 19 20 21 21 21 22 22 22 22 21 21 21 21
7 7 6 8 9 10 12 13 14 14 15 13 13 13 13 14 13 13 14 13 13 14 14 16 16 18 20 20 21 21 21 19 19 19 20 20 20 21 21 21 22 21 21 20
7 5 8 9 7 9 13 14 12 11 13 14 13 13 14 13 13 14 14 14 13 14 14 15 15 16 18 18 19 18 19 20 19 18 18 19 20 20 20 20 20 20 20 20
5 5 8 5 9 9 11 11 11 11 11 14 13 13 13 13 15 12 13 13 14 14 14 14 15 15 16 16 18 17 19 19 17 17 18 18 19 18 18 19 19 20 20 20
7 5 7 6 7 8 10 11 10 11 11 9 10 12 13 12 12 11 10 13 13 14 14 14 14 15 15 16 16 16 16 16 16 17 17 16 17 17 17 16 16 16 17 17
7 7 6 5 6 8 10 11 11 10 11 9 9 9 11 12 11 10 12 12 13 14 13 13 14 14 14 15 15 16 16 15 16 15 15 16 14 16 16 15 17 16 17 19
7 7 8 7 7 9 9 9 10 10 9 10 9 8 9 11 11 10 11 11 12 13 13 12 13 13 14 14 15 14 14 15 15 16 17 16 15 18 18 17 15 18 18 18
7 7 7 8 9 8 9 10 10 9 9 10 9 9 10 11 11 11 11 11 12 13 13 13 13 13 13 14 14 14 14 15 15 16 16 17 16 16 17 16 16 17 18 18
7 8 8 8 8 8 10 9 9 9 9 9 10 10 12 12 10 11 11 9 10 11 12 12 12 12 12 13 13 13 14 14 15 15 15 15 16 16 16 16 16 17 17 16
7 6 6 6 9 7 8 9 8 8 8 8 9 12 11 10 10 11 11 10 10 10 11 12 12 12 12 12 13 13 14 14 14 15 15 15 14 14 14 15 15 16 16 15
Height
1512 1521 1529 1523 1521 1520 1522 1527 1531 1521 1514 1520 1519 1513 1515 1519 1523 1524 1525 1528 1531 1532 1535 1540 1543 1546 1550 1553 1556 1559 1561 1564 1567 1568 1570 1573 1575 1578 1580 1582 1585 1588 1591 1594
1518 1527 1519 1519 1519 1519 1519 1523 1527 1519 1512 1516 1511 1512 1510 1513 1512 1514 1517 1521 1524 1529 1531 1535 1539 1542 1545 1549 1553 1557 1559 1562 1564 1568 1570 1573 1576 1578 1580 1582 1584 1587 1590 1593
1523 1519 1517 1516 1519 1522 1524 1525 1526 1526 1515 1508 1507 1515 1511 1509 1512 1516 1517 1518 1520 1522 1525 1529 1533 1537 1541 1545 1549 1553 1557 1560 1563 1566 1569 1572 1574 1577 1579 1581 1583 1586 1590 1592
1519 1516 1516 1518 1520 1521 1529 1517 1518 1521 1526 1538 1511 1542 1515 1508 1508 1509 1510 1512 1514 1517 1520 1524 1527 1531 1535 1539 1545 1549 1554 1557 1560 1564 1566 1570 1572 1574 1576 1579 1582 1585 1588 1591
1524 1519 1520 1523 1523 1519 1526 1515 1517 1516 1524 1526 1521 1534 1516 1506 1512 1505 1501 1502 1505 1507 1511 1515 1519 1524 1529 1535 1539 1545 1550 1554 1556 1560 1563 1567 1570 1573 1576 1579 1581 1583 1586 1589
1523 1521 1523 1523 1520 1519 1516 1516 1520 1524 1531 1544 1524 1526 1520 1513 1497 1493 1493 1493 1493 1496 1500 1506 1511 1517 1523 1529 1535 1540 1544 1549 1553 1556 1560 1563 1567 1571 1574 1576 1579 1582 1585 1588
1532 1529 1525 1523 1525 1519 1522 1534 1554 1547 1543 1545 1521 1526 1512 1489 1487 1487 1484 1484 1485 1489 1495 1498 1504 1508 1515 1521 1527 1534 1539 1543 1547 1552 1555 1559 1563 1567 1570 1574 1577 1580 1582 1585
1551 1550 1532 1528 1529 1532 1531 1535 1558 1553 1559 1543 1525 1525 1503 1482 1479 1478 1478 1476 1477 1482 1484 1487 1493 1498 1505 1512 1519 1526 1532 1537 1542 1546 1550 1555 1559 1563 1566 1570 1573 1576 1579 1582
1554 1548 1531 1528 1527 1529 1531 1542 1533 1543 1546 1553 1534 1509 1491 1479 1477 1474 1471 1470 1469 1470 1473 1475 1481 1487 1495 1503 1510 1518 1525 1531 1536 1540 1544 1549 1553 1557 1561 1566 1569 1572 1576 1578
1541 1554 1537 1531 1527 1528 1531 1530 1544 1553 1552 1551 1539 1522 1514 1490 1485 1479 1472 1468 1465 1463 1465 1468 1473 1479 1485 1494 1502 1510 1517 1523 1528 1534 1538 1542 1547 1552 1557 1561 1565 1568 1572 1575
1539 1549 1545 1535 1536 1540 1541 1539 1542 1548 1555 1557 1561 1534 1497 1492 1491 1485 1475 1468 1460 1456 1456 1460 1465 1471 1478 1486 1495 1502 1509 1516 1522 1527 1532 1537 1541 1546 1551 1555 1560 1564 1568 1570
1541 1554 1556 1543 1534 1534 1533 1537 1547 1559 1556 1554 1552 1532 1489 1491 1488 1486 1477 1470 1460 1452 1452 1458 1462 1469 1476 1481 1489 1495 1502 1508 1514 1520 1525 1530 1535 1540 1544 1548 1553 1558 1562 1566
1539 1555 1566 1555 1544 1537 1538 1536 1538 1546 1555 1553 1552 1524 1491 1489 1486 1484 1480 1467 1462 1456 1452 1456 1460 1461 1466 1473 1480 1487 1494 1499 1507 1513 1518 1523 1527 1532 1537 1542 1547 1552 1557 1561
1536 1552 1552 1563 1549 1542 1544 1539 1538 1541 1555 1546 1536 1513 1507 1496 1495 1483 1476 1470 1464 1459 1449 1454 1456 1459 1459 1463 1469 1477 1484 1492 1499 1505 1511 1516 1520 1525 1530 1535 1540 1545 1550 1554
1538 1549 1550 1546 1541 1540 1540 1538 1536 1537 1536 1540 1520 1510 1502 1501 1496 1486 1479 1471 1465 1463 1457 1447 1454 1456 1461 1467 1469 1473 1481 1485 1490 1498 1504 1509 1514 1519 1524 1528 1533 1538 1543 1547
1540 1547 1545 1542 1536 1536 1535 1532 1526 1524 1522 1517 1513 1509 1498 1495 1493 1486 1477 1473 1466 1464 1462 1455 1449 1454 1456 1464 1468 1474 1475 1481 1488 1492 1496 1502 1508 1513 1516 1521 1525 1530 1535 1539
1541 1546 1550 1547 1536 1535 1537 1523 1517 1513 1505 1504 1510 1499 1495 1491 1490 1483 1474 1475 1469 1465 1460 1460 1459 1451 1457 1459 1462 1468 1472 1478 1482 1486 1492 1497 1500 1505 1510 1515 1518 1521 1526 1531
1541 1546 1550 1549 1541 1544 1518 1510 1507 1507 1500 1498 1498 1496 1494 1489 1484 1482 1474 1473 1470 1465 1461 1461 1460 1453 1451 1455 1461 1460 1467 1473 1476 1482 1487 1491 1495 1498 1503 1508 1511 1515 1518 1522
1536 1544 1545 1546 1550 1530 1513 1504 1508 1508 1499 1496 1492 1491 1490 1486 1481 1476 1472 1471 1469 1467 1462 1463 1459 1453 1453 1453 1457 1462 1463 1463 1471 1478 1481 1487 1488 1492 1496 1499 1504 1508 1512 1515
1539 1540 1542 1555 1544 1537 1512 1507 1506 1507 1503 1491 1491 1489 1488 1483 1480 1478 1473 1469 1467 1462 1460 1460 1460 1456 1457 1454 1452 1454 1453 1451 1470 1474 1475 1481 1485 1489 1492 1494 1500 1502 1504 1507
1544 1545 1544 1547 1544 1525 1509 1506 1505 1512 1504 1493 1494 1489 1483 1482 1483 1478 1476 1470 1466 1460 1458 1459 1458 1458 1459 1455 1452 1451 1456 1462 1467 1468 1470 1476 1481 1484 1484 1488 1487 1497 1499 1499
1542 1543 1543 1544 1540 1528 1505 1504 1509 1504 1494 1494 1490 1486 1482 1478 1477 1474 1471 1468 1463 1458 1456 1459 1458 1457 1455 1454 1453 1458 1456 1460 1464 1467 1468 1470 1485 1479 1481 1486 1489 1490 1494 1495
1541 1533 1532 1531 1523 1505 1504 1502 1500 1499 1496 1488 1487 1482 1480 1477 1471 1467 1474 1466 1457 1456 1454 1460 1459 1458 1456 1458 1457 1463 1462 1460 1466 1467 1471 1474 1479 1479 1483 1481 1487 1491 1491 1491
1526 1523 1525 1520 1509 1506 1500 1498 1497 1494 1489 1483 1481 1478 1476 1477 1476 1469 1460 1452 1451 1454 1461 1459 1462 1461 1460 1460 1463 1462 1461 1461 1463 1459 1465 1466 1475 1480 1472 1472 1486 1488 1483 1487
1523 1521 1517 1514 1505 1500 1493 1494 1492 1489 1486 1478 1476 1473 1468 1473 1472 1471 1466 1458 1456 1459 1463 1459 1463 1463 1466 1462 1463 1466 1467 1466 1465 1461 1471 1463 1469 1476 1475 1479 1483 1479 1480 1483
1515 1513 1515 1510 1501 1503 1496 1491 1489 1487 1480 1477 1472 1470 1470 1469 1470 1469 1466 1470 1463 1464 1463 1466 1466 1466 1465 1460 1462 1465 1466 1467 1464 1466 1470 1469 1469 1474 1476 1477 1479 1480 1480 1483
Wind_Speed
4 5 2 2 2 2 2 3 4 5 5 7 15 11 11 21 21 22 27 28 32 36 33 31 30 29 29 29 27 23 22 20 19 20 22 21 19 18 18 23 24 26 24 22
6 1 3 3 2 3 3 2 4 5 2 8 7 14 9 22 30 33 31 31 33 36 35 35 34 34 32 31 30 27 24 22 22 21 22 20 18 17 17 17 24 26 25 21
5 2 2 4 5 5 3 1 3 4 7 3 1 5 8 14 21 24 27 32 33 40 41 38 38 38 36 35 34 30 26 22 25 25 22 22 21 19 19 21 22 26 26 21
1 3 4 5 2 4 2 5 3 5 4 2 3 4 4 7 18 17 29 32 35 38 42 42 41 41 42 38 36 33 29 25 25 29 26 26 23 23 21 21 23 25 25 22
3 5 5 5 4 1 6 4 5 3 4 1 2 2 6 6 11 18 26 35 40 46 46 47 45 45 44 42 40 36 32 28 27 31 30 30 25 21 17 17 19 23 25 23
3 3 5 3 4 2 5 1 5 4 3 1 6 6 5 6 13 17 26 37 43 45 49 50 48 45 46 45 43 41 37 32 29 31 33 33 30 24 23 21 20 21 24 24
7 4 5 5 7 7 11 6 3 3 0 5 2 0 7 6 5 8 18 35 42 42 41 48 50 49 50 50 48 45 41 37 32 32 34 35 30 27 26 25 23 23 23 27
3 6 7 8 1 4 5 4 4 3 3 5 5 6 5 7 14 20 24 30 34 38 44 49 54 53 52 53 51 49 45 42 38 35 35 38 34 33 30 28 24 24 25 22
3 4 5 2 3 1 5 3 2 2 2 2 4 8 8 7 10 14 19 16 29 39 44 52 55 56 52 55 54 52 48 44 42 38 36 39 37 38 35 30 27 24 21 21
3 2 2 6 6 4 3 3 3 3 2 4 5 5 5 10 13 20 24 22 23 33 42 45 50 56 55 53 55 52 48 45 43 41 38 38 40 39 37 33 30 27 25 23
3 3 6 2 2 4 5 4 3 3 4 4 3 6 5 5 9 20 25 31 33 24 39 44 48 53 56 53 53 55 51 48 47 43 40 39 42 43 40 38 34 29 27 24
2 4 2 6 5 4 4 4 4 4 6 2 2 6 10 8 18 24 34 37 40 23 29 37 38 39 46 51 51 54 54 51 47 44 42 39 42 43 42 41 37 33 31 27
3 1 3 8 6 5 5 2 2 2 2 4 2 6 14 24 25 31 32 40 36 23 21 32 35 42 46 49 51 52 54 53 49 45 44 40 41 44 45 44 40 36 34 31
4 3 7 6 7 3 3 3 5 3 2 5 7 17 10 18 14 32 34 34 31 22 21 30 35 42 45 48 49 50 51 53 51 48 46 43 40 42 42 44 44 40 36 34
4 3 5 6 8 3 6 8 8 7 7 7 12 22 15 8 14 22 24 27 24 21 14 28 33 35 36 36 42 43 46 48 49 48 47 45 41 38 41 41 45 43 38 35
2 3 4 4 7 7 5 8 14 14 15 16 12 13 2 19 13 15 21 22 16 16 10 5 27 27 24 33 34 36 37 38 41 44 46 44 43 40 37 38 39 44 42 39
3 4 2 5 4 6 5 11 11 6 7 6 7 7 7 6 6 10 16 18 13 9 8 5 7 15 22 24 33 32 26 30 35 37 39 42 43 42 40 35 34 35 39 40
4 4 2 4 2 4 6 4 7 8 10 7 6 5 10 10 7 10 9 11 9 8 6 6 5 11 14 21 26 22 24 31 29 31 33 36 35 37 40 39 36 33 32 32
2 4 1 1 3 6 5 4 4 2 10 8 8 6 13 14 9 9 5 6 5 6 1 2 5 1 9 14 21 26 21 16 25 26 29 32 32 36 33 35 37 35 28 25
4 3 3 2 3 5 6 3 8 0 8 2 7 9 6 13 6 4 5 5 4 4 3 4 7 9 6 8 9 17 18 11 25 24 25 25 30 21 21 26 27 27 25 23
4 3 3 3 5 8 5 9 0 4 7 23 19 17 13 2 4 13 32 11 11 11 11 7 5 11 7 9 10 21 28 25 19 18 21 16 22 16 12 12 14 10 12 12
4 2 3 1 3 7 2 5 1 9 27 21 22 24 24 16 21 23 32 27 15 16 14 14 14 15 12 8 10 19 21 13 15 6 9 11 7 5 1 10 10 16 9 8
3 7 3 8 6 9 14 16 28 22 24 35 26 29 26 20 19 18 24 37 19 19 19 17 19 17 18 17 14 11 11 12 11 6 8 10 13 2 3 2 15 18 14 17
4 6 4 2 5 15 30 32 34 23 20 27 26 26 23 16 13 14 30 11 24 20 17 19 19 22 21 19 19 18 15 11 11 11 10 4 11 18 12 10 20 18 17 17
5 4 3 6 18 21 16 12 18 25 20 26 21 23 12 6 2 2 16 15 21 24 20 21 21 20 22 25 25 21 17 13 13 15 14 14 9 11 12 12 11 7 7 7
7 6 4 5 8 6 22 24 23 21 21 19 18 11 8 9 6 1 6 9 13 22 22 22 20 21 22 21 20 18 17 15 12 11 13 16 17 13 11 8 6 5 5 6
Wind_Direction
35 71 121 150 172 259 221 208 207 254 217 179 222 231 185 193 199 196 196 202 211 216 217 218 216 212 211 210 206 201 199 191 194 190 192 199 200 201 197 196 193 186 186 191
30 101 180 194 163 70 358 360 317 297 190 197 250 232 181 191 205 205 199 203 208 218 220 221 221 218 216 215 211 206 205 202 197 197 196 198 199 199 198 193 193 194 194 199
133 217 337 87 34 43 352 202 267 278 317 314 174 287 184 211 209 213 218 217 214 215 218 221 220 221 220 219 216 210 209 206 206 202 202 204 200 204 203 203 196 199 202 209
114 308 49 48 13 127 346 198 243 308 40 282 61 284 243 197 210 209 217 216 220 219 222 223 222 221 222 222 220 215 214 211 211 209 210 212 211 207 203 205 203 203 208 210
283 4 3 18 327 218 243 299 259 243 205 116 287 121 273 130 212 224 219 217 217 223 222 222 221 223 223 222 220 218 216 215 214 211 214 214 212 207 212 208 210 209 207 206
18 352 62 291 332 329 277 335 27 58 104 250 227 172 267 179 216 223 225 223 219 216 221 225 225 224 223 223 221 219 217 215 214 212 212 214 213 210 204 209 210 212 211 211
339 360 329 358 13 350 26 43 357 344 258 224 212 175 231 243 245 234 221 223 223 218 216 218 222 221 222 220 222 220 218 217 216 214 214 213 217 217 216 213 217 220 223 224
61 337 14 342 89 252 304 124 139 263 234 268 279 248 251 227 271 280 257 256 235 216 214 216 221 223 221 221 222 222 220 219 218 218 219 220 225 222 220 219 224 226 229 234
76 291 322 308 300 55 314 36 282 168 340 64 247 290 304 290 315 331 312 292 239 220 212 215 218 222 222 222 222 222 222 222 222 221 222 220 222 222 222 223 223 224 228 234
188 295 267 292 5 28 117 247 5 10 278 285 294 281 243 327 333 334 326 315 282 246 215 212 212 218 222 224 224 225 224 223 224 223 224 224 221 223 226 226 226 227 229 238
104 120 289 23 24 261 350 21 21 124 134 198 303 270 231 340 327 324 317 313 311 277 221 210 210 217 222 221 223 226 226 225 225 226 226 225 223 224 227 227 229 231 233 236
25 136 244 251 288 295 187 105 102 104 297 255 207 260 283 320 338 341 326 317 314 292 231 212 206 206 210 219 222 225 227 227 227 228 227 227 226 225 227 227 229 231 234 233
170 13 20 344 0 358 52 345 96 139 81 231 240 262 340 332 337 330 326 324 312 288 230 212 205 205 214 220 222 226 228 229 229 229 228 229 230 228 230 229 231 233 233 233
111 131 168 190 223 174 262 243 279 162 159 250 241 287 309 308 323 322 327 323 318 302 221 216 210 212 217 218 221 225 228 232 231 229 230 230 232 233 232 230 232 234 237 236
99 212 190 244 255 257 236 252 244 232 220 218 281 284 290 300 305 310 323 325 310 310 249 203 204 204 209 214 219 222 227 229 232 232 232 232 233 237 235 235 234 236 239 241
32 246 175 266 256 226 246 269 264 249 253 258 255 266 199 319 319 326 346 330 328 321 321 215 199 201 200 215 219 219 224 232 234 236 235 235 235 235 238 238 239 237 240 242
166 158 111 258 258 308 275 230 232 238 233 214 227 241 309 304 311 346 356 331 337 327 346 278 207 193 205 215 217 219 223 230 237 242 244 241 237 236 238 239 242 242 242 242
140 133 148 256 350 229 242 274 252 249 257 232 260 268 292 278 268 316 359 326 314 343 307 353 247 187 191 213 219 225 229 226 233 241 243 252 243 245 241 240 242 244 246 247
102 127 70 257 232 291 289 293 24 353 288 244 234 232 290 325 281 280 308 300 277 269 33 145 70 211 222 220 216 216 221 242 235 238 239 238 239 246 241 243 244 245 248 251
77 76 134 115 250 257 230 158 343 16 282 255 255 275 307 341 297 310 263 211 260 127 106 234 206 89 126 182 224 220 221 242 221 215 225 238 242 228 254 250 244 243 237 238
328 342 209 229 248 283 266 320 123 175 278 326 322 309 282 236 312 309 334 229 185 137 111 126 139 192 155 119 99 146 152 161 179 179 165 153 208 221 214 215 203 245 226 230
203 199 238 172 217 277 203 357 360 295 305 311 310 308 304 307 296 290 298 286 167 136 122 110 108 104 103 113 134 142 125 82 75 137 128 86 259 94 220 276 278 260 278 252
263 194 211 193 222 275 295 279 302 304 291 302 300 296 297 298 310 287 281 293 138 120 115 109 98 102 106 110 131 149 149 127 120 121 103 121 259 59 211 290 264 258 248 236
256 209 234 329 268 292 297 296 299 317 297 300 297 290 292 261 278 306 319 259 120 106 108 111 105 93 95 106 114 105 117 141 160 139 151 168 263 226 239 217 249 246 241 255
230 164 228 253 281 291 290 298 319 323 316 306 300 287 298 214 299 157 350 17 105 112 108 94 95 93 93 101 99 94 92 102 120 126 144 148 171 180 175 184 184 179 202 209
200 208 177 242 261 286 304 315 322 326 318 318 314 321 253 206 97 115 136 72 78 107 104 98 87 77 73 79 82 84 85 84 104 125 125 120 123 110 113 116 131 156 179 216